Terminal Aerodrome Forecast
Issued by NWS

Home | Current Version | Previous Version | Text Only | Print | Product List | Glossary On
Versions: 1 2 3 4 5 6 7 8 9 10 11 12 13 14 15 16 17 18 19 20
000
FTUS46 KMTR 221700
TAFSTS
TAF
KSTS 221720Z 2218/2318 VRB03KT P6SM SCT006
     FM221900 22003KT P6SM SKC
     FM222100 19011KT P6SM SKC
     FM230400 16005KT P6SM SKC
     FM230700 VRB03KT P6SM OVC007
     FM231500 00000KT 1/2SM FG OVC004=

USA.gov is the U.S. government's official web portal to all federal, state and local government web resources and services.